Leesburg, FL

11:32 PM EST on November 13, 2019 (GMT -0500)
Leesburg Regional

Weather History for KLEE - October, 2019

Change the Weather History Date:

Saturday, October 12, 2019

  Actual Average Record
Temperature  
Mean Temperature 78 °F -  
Max Temperature 88 °F 83 °F 93 °F (2002)
Min Temperature 68 °F 64 °F 56 °F (1963)
Cooling Degree Days 12    
Growing Degree Days 28 (Base 50)    
Moisture  
Dew Point 63 °F    
Average Humidity 65    
Maximum Humidity 87    
Minimum Humidity 36    
Precipitation  
Precipitation 0.00 in - - ()
Sea Level Pressure  
Sea Level Pressure 30.03 in    
Wind  
Wind Speed 3 mph (East)    
Max Wind Speed 8 mph    
Max Gust Speed -    
Visibility 10 miles    
Events      
Averages and records for this station are not official NWS values.
T = Trace of Precipitation, MM = Missing Value Source: NWS Daily Summary

Daily Weather History Graph

Daily Weather History Graph

Search for Another Location

Airport or City:

Astronomy

Oct. 12, 2019 Rise Set
Actual Time 7:26 AM EDT 7:00 PM EDT
Civil Twilight 7:02 AM EDT 7:24 PM EDT
Nautical Twilight 6:35 AM EDT 7:51 PM EDT
Astronomical Twilight 6:07 AM EDT 8:19 PM EDT
Moon 6:46 PM EDT (10/12) 6:14 AM EDT (10/12)
Length of Visible Light 12h 21m
Length of Day
11h 34m
Waxing Gibbous, 99% of the Moon is Illuminated
Oct 12
Waxing Gibbous
Oct 13
Full
Oct 21
Last Quarter
Oct 27
New
Nov 4
First Quarter

Hourly Weather History & Observations

Time (EDT) Temp. Heat Index Dew Point Humidity Pressure Visibility Wind Dir Wind Speed Gust Speed Precip Events Conditions
12:53 AM 71.1 °F - 64.0 °F 78% 30.06 in 10.0 mi NE 5.8 mph - N/A   Clear
1:53 AM 70.0 °F - 64.0 °F 81% 30.04 in 10.0 mi Calm Calm - N/A   Clear
2:53 AM 69.1 °F - 64.0 °F 84% 30.03 in 10.0 mi Calm Calm - N/A   Clear
3:12 AM 69.1 °F - 64.9 °F 87% 30.02 in 10.0 mi Calm Calm - N/A   Partly Cloudy
3:53 AM 70.0 °F - 64.9 °F 84% 30.01 in 10.0 mi Calm Calm - N/A   Partly Cloudy
4:53 AM 68.0 °F - 64.0 °F 87% 30.00 in 10.0 mi Calm Calm - N/A   Scattered Clouds
5:53 AM 69.1 °F - 64.0 °F 84% 30.01 in 10.0 mi Calm Calm - N/A   Clear
6:53 AM 68.0 °F - 64.0 °F 87% 30.01 in 10.0 mi NE 4.6 mph - N/A   Clear
7:53 AM 69.1 °F - 64.9 °F 87% 30.02 in 10.0 mi Calm Calm - N/A   Clear
8:53 AM 75.0 °F - 66.9 °F 76% 30.03 in 10.0 mi NE 3.5 mph - N/A   Clear
9:53 AM 80.1 °F 82.1 °F 66.0 °F 62% 30.04 in 10.0 mi Calm Calm - N/A   Clear
10:53 AM 82.9 °F 84.6 °F 64.9 °F 54% 30.05 in 10.0 mi Calm Calm - N/A   Clear
11:53 AM 84.0 °F 84.4 °F 61.0 °F 46% 30.06 in 10.0 mi SE 5.8 mph - N/A   Partly Cloudy
12:53 PM 86.0 °F 85.0 °F 57.9 °F 38% 30.04 in 10.0 mi Calm Calm - N/A   Clear
1:53 PM 84.9 °F 84.2 °F 57.9 °F 40% 30.03 in 10.0 mi Variable 3.5 mph - N/A   Clear
2:53 PM 87.1 °F 85.9 °F 57.0 °F 36% 30.01 in 10.0 mi Variable 3.5 mph - N/A   Clear
3:53 PM 87.1 °F 86.1 °F 57.9 °F 37% 30.00 in 10.0 mi SSE 4.6 mph - N/A   Clear
4:53 PM 87.1 °F 86.5 °F 59.0 °F 39% 29.99 in 10.0 mi South 4.6 mph - N/A   Clear
5:53 PM 87.1 °F 86.5 °F 59.0 °F 39% 30.00 in 10.0 mi Calm Calm - N/A   Clear
6:53 PM 81.0 °F 82.2 °F 63.0 °F 54% 30.01 in 10.0 mi Calm Calm - N/A   Clear
7:53 PM 75.9 °F - 62.1 °F 62% 30.02 in 10.0 mi ENE 6.9 mph - N/A   Clear
8:53 PM 79.0 °F - 66.9 °F 66% 30.04 in 10.0 mi East 8.1 mph - N/A   Clear
9:53 PM 77.0 °F - 68.0 °F 74% 30.05 in 10.0 mi East 8.1 mph - N/A   Clear
10:53 PM 75.9 °F - 68.0 °F 76% 30.06 in 10.0 mi East 6.9 mph - N/A   Clear
11:53 PM 75.9 °F - 66.9 °F 74% 30.05 in 10.0 mi East 6.9 mph - N/A   Clear